Regional Weather Roundup
Issued by NWS

Home | Current Version | Previous Version | Graphics & Text | Print | Product List | Glossary On
Versions: 1 2 3 4 5 6 7 8 9 10 11 12 13 14 15 16 17 18 19 20 21 22 23 24 25 26 27 28 29 30 31 32 33 34 35 36 37 38 39 40 41 42 43 44 45 46 47 48 49 50
000
ASUS43 KIND 230359
RWRIN

WEATHER ROUNDUP FOR INDIANA
NATIONAL WEATHER SERVICE INDIANAPOLIS IN
1100 PM EST MON JAN 22 2018

NOTE: "FAIR" INDICATES FEW OR NO CLOUDS BELOW 12,000 FEET WITH NO
SIGNIFICANT WEATHER AND/OR OBSTRUCTIONS TO VISIBILITY.

* - STATION DOES NOT REPORT WEATHER SUCH AS PRECIPITATION OR FOG.

+ - STATION NOT QUALITY CONTROLLED BY THE NATIONAL WEATHER SERVICE.
    USE DATA WITH CAUTION...ESPECIALLY DEWPOINT AND RELATIVE
    HUMIDITY OBSERVATIONS.

INZ001>003-010>013-019-020-230500-
NORTHWEST INDIANA

CITY           SKY/WX    TMP DP  RH WIND       PRES   REMARKS
GARY /AIRPORT/ MOCLDY    43  32  65 W12G23    29.53S
KNOX *+        CLOUDY    41  36  81 W12G21    29.55R
MONTICELLO +   MOCLDY    38  35  89 W7        29.57F WCI  33

$$

LMZ046-743>745-230500-
SOUTHERN LAKE MICHIGAN

STATION/POSITION TIME  TEMP    WIND        PRES    WAVE
                       AIR SEA DIR/SP/G            HT
                 (UTC) (F)     (DEG/KT/KT) (MB)    (FT)
BURNS HARBOR     0340   41     240/ 11/ 20 1000.3R
MICHIGAN CITY    0330   39     230/ 21/ 23   N/A

$$

INZ004-005-014>016-021>024-230500-
NORTH CENTRAL INDIANA

CITY           SKY/WX    TMP DP  RH WIND       PRES   REMARKS
GOSHEN         LGT RAIN  42  38  85 W25G35    29.55R
PERU/GRISSOM   CLOUDY    40  40 100 W9        29.57R WCI  34
SOUTH BEND     CLOUDY    41  36  82 W12       29.54R

$$

INZ006>009-017-018-025>027-230500-
NORTHEAST INDIANA

CITY           SKY/WX    TMP DP  RH WIND       PRES   REMARKS
FORT WAYNE     LGT RAIN  45  40  82 W22G29    29.53S
KENDALLVILLE + LGT RAIN  46  42  87 SW16G22   29.51R

$$

INZ028-029-035-036-043>045-051>053-230500-
WEST CENTRAL INDIANA

CITY           SKY/WX    TMP DP  RH WIND       PRES   REMARKS
GREENCASTLE +  CLOUDY    41  36  81 CALM      29.62R
LAFAYETTE      FAIR      36  34  92 W5        29.58S WCI  32
TERRE HAUTE    CLOUDY    40  35  83 CALM      29.63R

$$

INZ030>032-037>040-046>048-054>057-064-065-230500-
CENTRAL INDIANA

CITY           SKY/WX    TMP DP  RH WIND       PRES   REMARKS
INDIANAPOLIS   FAIR      38  35  89 W8        29.61R WCI  32
-EAGLE CREEK   FAIR      40  35  83 W8        29.60R WCI  34
MT COMFORT *+  MOCLDY    41  39  93 W10       29.62R
SHELBYVILLE    FAIR      46  37  71 W13G25    29.60R

$$

INZ033-034-041-042-049-050-058-059-230500-
EAST CENTRAL INDIANA

CITY           SKY/WX    TMP DP  RH WIND       PRES   REMARKS
MUNCIE         MOCLDY    44  37  76 W24G30    29.59R
RICHMOND +     MOCLDY    45  43  93 SW15      29.58R

$$

INZ060-061-067>069-081>083-085>088-230500-
SOUTHWEST INDIANA

CITY           SKY/WX    TMP DP  RH WIND       PRES   REMARKS
EVANSVILLE     CLOUDY    46  34  62 SW15      29.67S
HUNTINGBURG +  MOCLDY    48  33  56 SW17G28   29.67R

$$

INZ062-063-066-070>080-084-089>092-230500-
SOUTH CENTRAL AND SOUTHEAST INDIANA

CITY           SKY/WX    TMP DP  RH WIND       PRES   REMARKS
BLOOMINGTON    FAIR      46  34  62 W9        29.62R
FRENCH LICK *+ FAIR      46  27  46 SW13G21   29.65S
SEYMOUR +      FAIR      50  32  50 SW20G32   29.64R

$$





USA.gov is the U.S. government's official web portal to all federal, state and local government web resources and services.